Location: New Plymouth
(39.0670°S, 174.0830°E)
Time: 09:37:45
(UTC+13:00)

Meteor 2-6 Rocket - Pass Details

Date: 24 January 2019
Orbit: 805 x 916 km, 81.3° (Epoch: 20 February)

Event Time Altitude Azimuth Distance (km) Brightness Sun altitude
Exits shadow 23:33:40 47° 98° (E) 1,067 4.5 -25.1°
Drops below altitude 10° 23:38:34 10° 159° (SSE) 2,423 7.0 -25.6°
Sets 23:41:03 0° 164° (SSE) 3,370 7.9 -25.8°
